| time (UTC) | temp F | wind direction | speed MPH | gust MPH | rain 1hr in | rain 24hr in | rain mn in | humidity % | barometer mb |
| 20260507163834 | 57 | 90 | 0.0 | 3.0 | 0.00 | 0.20 | 0.06 | 41 | 1011.3 |
| 20260507163331 | 58 | 35 | 0.0 | 3.0 | 0.00 | 0.20 | 0.06 | 42 | 1011.3 |
| 20260507162824 | 57 | 143 | 0.0 | 9.0 | 0.00 | 0.20 | 0.06 | 46 | 1011.3 |
| 20260507162323 | 56 | 153 | 1.0 | 9.0 | 0.00 | 0.20 | 0.06 | 44 | 1011.2 |
| 20260507161822 | 57 | 359 | 0.0 | 5.0 | 0.00 | 0.20 | 0.06 | 45 | 1011.4 |
| 20260507161322 | 57 | 26 | 0.0 | 5.0 | 0.00 | 0.20 | 0.06 | 44 | 1011.6 |
| 20260507160319 | 56 | 137 | 1.0 | 7.0 | 0.00 | 0.20 | 0.06 | 47 | 1011.6 |
| 20260507155818 | 56 | 194 | 1.0 | 7.0 | 0.00 | 0.20 | 0.06 | 43 | 1011.7 |
| 20260507155317 | 56 | 356 | 1.0 | 7.0 | 0.00 | 0.20 | 0.06 | 44 | 1011.6 |
| 20260507154816 | 55 | 77 | 1.0 | 7.0 | 0.00 | 0.20 | 0.06 | 46 | 1011.7 |
| 20260507154317 | 55 | 35 | 0.0 | 5.0 | 0.00 | 0.20 | 0.06 | 48 | 1011.7 |
| 20260507153815 | 55 | 129 | 0.0 | 7.0 | 0.00 | 0.20 | 0.06 | 44 | 1011.9 |
| 20260507153315 | 55 | 162 | 1.0 | 7.0 | 0.00 | 0.20 | 0.06 | 48 | 1011.9 |
| 20260507152816 | 55 | 225 | 0.0 | 6.0 | 0.00 | 0.20 | 0.06 | 44 | 1012.1 |
| 20260507152312 | 55 | 132 | 0.0 | 4.0 | 0.00 | 0.20 | 0.06 | 47 | 1012.0 |
| 20260507151812 | 54 | 108 | 0.0 | 4.0 | 0.00 | 0.20 | 0.06 | 45 | 1012.0 |
| 20260507151313 | 54 | 239 | 0.0 | 4.0 | 0.00 | 0.20 | 0.06 | 47 | 1012.1 |
| 20260507150814 | 54 | 13 | 0.0 | 5.0 | 0.00 | 0.20 | 0.06 | 50 | 1012.3 |
| 20260507150315 | 54 | 113 | 0.0 | 6.0 | 0.00 | 0.20 | 0.06 | 48 | 1012.2 |
| 20260507145808 | 54 | 292 | 0.0 | 6.0 | 0.00 | 0.20 | 0.06 | 46 | 1012.1 |
| 20260507145306 | 54 | 162 | 0.0 | 2.0 | 0.00 | 0.20 | 0.06 | 52 | 1012.0 |
| 20260507144250 | 53 | 187 | 1.0 | 8.0 | 0.00 | 0.20 | 0.06 | 46 | 1012.1 |
| 20260507143744 | 53 | 335 | 1.0 | 8.0 | 0.00 | 0.20 | 0.06 | 49 | 1012.0 |
| 20260507142738 | 53 | 290 | 0.0 | 4.0 | 0.00 | 0.20 | 0.06 | 57 | 1012.0 |
| 20260507142239 | 52 | 94 | 0.0 | 6.0 | 0.00 | 0.20 | 0.06 | 53 | 1012.2 |
| 20260507141736 | 52 | 98 | 0.0 | 6.0 | 0.00 | 0.20 | 0.06 | 51 | 1012.2 |
| 20260507141237 | 52 | 84 | 1.0 | 7.0 | 0.00 | 0.20 | 0.06 | 54 | 1012.3 |
| 20260507140736 | 52 | 44 | 0.0 | 7.0 | 0.00 | 0.20 | 0.06 | 56 | 1012.4 |
| 20260507140235 | 52 | 134 | 0.0 | 4.0 | 0.00 | 0.20 | 0.06 | 58 | 1012.4 |
| 20260507135734 | 52 | 290 | 0.0 | 9.0 | 0.00 | 0.20 | 0.06 | 60 | 1012.2 |
| 20260507134734 | 52 | 347 | 0.0 | 3.0 | 0.00 | 0.20 | 0.06 | 66 | 1012.3 |
| 20260507134235 | 51 | 109 | 0.0 | 5.0 | 0.00 | 0.20 | 0.06 | 65 | 1012.2 |
| 20260507133735 | 51 | 141 | 0.0 | 5.0 | 0.00 | 0.20 | 0.06 | 71 | 1012.2 |
| 20260507133233 | 51 | 92 | 0.0 | 5.0 | 0.00 | 0.20 | 0.06 | 73 | 1012.2 |
| 20260507132733 | 50 | 30 | 0.0 | 5.0 | 0.00 | 0.20 | 0.06 | 77 | 1012.2 |
| 20260507132233 | 50 | 117 | 0.0 | 1.0 | 0.00 | 0.20 | 0.06 | 79 | 1012.1 |
| 20260507131734 | 49 | 151 | 0.0 | 0.0 | 0.00 | 0.20 | 0.06 | 82 | 1012.1 |
| 20260507131232 | 49 | 120 | 0.0 | 5.0 | 0.00 | 0.20 | 0.06 | 82 | 1012.2 |
| 20260507130733 | 48 | 195 | 0.0 | 5.0 | 0.00 | 0.20 | 0.06 | 82 | 1012.1 |
| 20260507130227 | 48 | 128 | 0.0 | 3.0 | 0.00 | 0.20 | 0.06 | 82 | 1012.1 |
| 20260507125721 | 49 | 142 | 0.0 | 2.0 | 0.00 | 0.20 | 0.06 | 86 | 1012.0 |
| 20260507125218 | 48 | 88 | 0.0 | 3.0 | 0.00 | 0.20 | 0.06 | 86 | 1011.9 |
| 20260507124221 | 0 | 0.0 | 0.0 | 0.00 | 0.20 | 0.06 | 1012.0 | ||
| 20260507123719 | 0 | 0.0 | 0.0 | 0.00 | 0.20 | 0.06 | 1012.1 | ||
| 20260507123217 | 0 | 0.0 | 0.0 | 0.00 | 0.20 | 0.06 | 1012.0 | ||
| 20260507122626 | 0 | 0.0 | 0.0 | 0.00 | 0.20 | 0.06 | 1012.1 | ||
| 20260507122121 | 0 | 0.0 | 0.0 | 0.00 | 0.20 | 0.06 | 1011.9 | ||
| 20260507121617 | 0 | 0.0 | 0.0 | 0.00 | 0.20 | 0.06 | 1012.1 | ||
| 20260507121025 | 0 | 0.0 | 0.0 | 0.00 | 0.20 | 0.06 | 1012.1 | ||
| 20260507120424 | 0 | 0.0 | 0.0 | 0.00 | 0.20 | 0.06 | 1012.1 | ||
| 20260507115927 | 0 | 0.0 | 0.0 | 0.00 | 0.20 | 0.06 | 1012.0 | ||
| 20260507114917 | 0 | 0.0 | 0.0 | 0.00 | 0.20 | 0.06 | 1011.9 | ||
| 20260507114413 | 0 | 0.0 | 0.0 | 0.00 | 0.20 | 0.06 | 1011.7 | ||
| 20260507113824 | 0 | 0.0 | 0.0 | 0.00 | 0.20 | 0.06 | 1011.9 | ||
| 20260507112819 | 0 | 0.0 | 0.0 | 0.00 | 0.20 | 0.06 | 1011.6 | ||
| 20260507112316 | 0 | 0.0 | 0.0 | 0.00 | 0.20 | 0.06 | 1011.6 | ||
| 20260507111813 | 0 | 0.0 | 0.0 | 0.00 | 0.20 | 0.06 | 1011.7 | ||
| 20260507111224 | 0 | 0.0 | 0.0 | 0.00 | 0.20 | 0.06 | 1011.5 | ||
| 20260507110215 | 0 | 0.0 | 0.0 | 0.00 | 0.20 | 0.06 | 1011.3 | ||
| 20260507105716 | 0 | 0.0 | 0.0 | 0.00 | 0.20 | 0.06 | 1011.4 | ||
| 20260507105117 | 0 | 0.0 | 0.0 | 0.00 | 0.20 | 0.06 | 1011.2 | ||
| 20260507104527 | 0 | 0.0 | 0.0 | 0.00 | 0.20 | 0.06 | 1011.1 | ||
| 20260507104025 | 0 | 0.0 | 0.0 | 0.00 | 0.20 | 0.06 | 1011.1 | ||
| 20260507103513 | 0 | 0.0 | 0.0 | 0.00 | 0.20 | 0.06 | 1011.1 | ||
| 20260507103013 | 0 | 0.0 | 0.0 | 0.00 | 0.20 | 0.06 | 1011.1 | ||
| 20260507102427 | 0 | 0.0 | 0.0 | 0.00 | 0.20 | 0.06 | 1011.0 | ||
| 20260507101923 | 0 | 0.0 | 0.0 | 0.00 | 0.20 | 0.06 | 1011.0 | ||
| 20260507101415 | 0 | 0.0 | 0.0 | 0.00 | 0.20 | 0.06 | 1010.9 | ||
| 20260507100911 | 0 | 0.0 | 0.0 | 0.00 | 0.20 | 0.06 | 1010.9 | ||
| 20260507100317 | 0 | 0.0 | 0.0 | 0.00 | 0.20 | 0.06 | 1010.8 | ||
| 20260507095312 | 0 | 0.0 | 0.0 | 0.00 | 0.20 | 0.06 | 1010.6 | ||
| 20260507094218 | 0 | 0.0 | 0.0 | 0.00 | 0.20 | 0.06 | 1010.6 | ||
| 20260507093714 | 0 | 0.0 | 0.0 | 0.00 | 0.20 | 0.06 | 1010.2 | ||
| 20260507093125 | 0 | 0.0 | 0.0 | 0.00 | 0.20 | 0.06 | 1010.5 | ||
| 20260507092620 | 0 | 0.0 | 0.0 | 0.00 | 0.20 | 0.06 | 1010.4 | ||
| 20260507092117 | 0 | 0.0 | 0.0 | 0.00 | 0.20 | 0.06 | 1010.4 | ||
| 20260507091612 | 0 | 0.0 | 0.0 | 0.00 | 0.20 | 0.06 | 1010.5 | ||
| 20260507091015 | 0 | 0.0 | 0.0 | 0.00 | 0.20 | 0.06 | 1010.5 | ||
| 20260507090423 | 0 | 0.0 | 0.0 | 0.00 | 0.20 | 0.06 | 1010.5 | ||
| 20260507084815 | 0 | 0.0 | 0.0 | 0.00 | 0.20 | 0.06 | 1010.5 | ||
| 20260507084227 | 0 | 0.0 | 0.0 | 0.00 | 0.20 | 0.06 | 1010.2 | ||
| 20260507083218 | 0 | 0.0 | 0.0 | 0.00 | 0.20 | 0.06 | 1010.2 | ||
| 20260507082718 | 0 | 0.0 | 0.0 | 0.00 | 0.20 | 0.06 | 1010.4 | ||
| 20260507082216 | 0 | 0.0 | 0.0 | 0.00 | 0.20 | 0.06 | 1010.2 | ||
| 20260507081624 | 0 | 0.0 | 0.0 | 0.00 | 0.20 | 0.06 | 1010.5 | ||
| 20260507081120 | 0 | 0.0 | 0.0 | 0.00 | 0.20 | 0.06 | 1010.3 | ||
| 20260507080616 | 0 | 0.0 | 0.0 | 0.00 | 0.20 | 0.06 | 1010.3 | ||
| 20260507080024 | 0 | 0.0 | 0.0 | 0.00 | 0.20 | 0.06 | 1010.5 | ||
| 20260507075512 | 0 | 0.0 | 0.0 | 0.00 | 0.20 | 0.06 | 1010.7 | ||
| 20260507074924 | 0 | 0.0 | 0.0 | 0.00 | 0.20 | 0.06 | 1010.7 | ||
| 20260507074410 | 0 | 0.0 | 0.0 | 0.01 | 0.20 | 0.06 | 1010.5 | ||
| 20260507073818 | 0 | 0.0 | 0.0 | 0.02 | 0.20 | 0.06 | 1010.3 | ||
| 20260507073316 | 0 | 0.0 | 0.0 | 0.03 | 0.20 | 0.06 | 1010.1 | ||
| 20260507072729 | 0 | 0.0 | 0.0 | 0.04 | 0.20 | 0.06 | 1010.7 | ||
| 20260507072227 | 0 | 0.0 | 0.0 | 0.04 | 0.20 | 0.06 | 1010.6 | ||
| 20260507071720 | 0 | 0.0 | 0.0 | 0.05 | 0.20 | 0.06 | 1010.7 | ||
| 20260507071218 | 0 | 0.0 | 0.0 | 0.05 | 0.20 | 0.06 | 1010.8 | ||
| 20260507070203 | 48 | 158 | 0.0 | 0.0 | 0.05 | 0.20 | 0.06 | 94 | 1010.4 |
| 20260507065654 | 48 | 158 | 0.0 | 0.0 | 0.06 | 0.20 | 0.06 | 94 | 1010.3 |
| 20260507065148 | 48 | 159 | 0.0 | 0.0 | 0.06 | 0.20 | 0.06 | 93 | 1010.3 |
| 20260507064641 | 49 | 159 | 0.0 | 0.0 | 0.05 | 0.19 | 0.05 | 93 | 1010.3 |
| 20260507064136 | 49 | 159 | 0.0 | 0.0 | 0.04 | 0.18 | 0.04 | 93 | 1010.3 |
| 20260507063630 | 49 | 159 | 0.0 | 0.0 | 0.04 | 0.18 | 0.04 | 93 | 1010.4 |
| 20260507063124 | 49 | 186 | 0.0 | 0.0 | 0.03 | 0.17 | 0.03 | 93 | 1010.4 |
| 20260507062111 | 49 | 343 | 0.0 | 0.0 | 0.02 | 0.16 | 0.02 | 92 | 1009.9 |
| 20260507061605 | 49 | 90 | 0.0 | 0.0 | 0.01 | 0.15 | 0.01 | 92 | 1009.9 |
| 20260507061100 | 49 | 90 | 0.0 | 0.0 | 0.01 | 0.15 | 0.01 | 91 | 1010.0 |
| 20260507060554 | 49 | 89 | 0.0 | 0.0 | 0.01 | 0.15 | 0.01 | 91 | 1009.9 |
| 20260507060048 | 49 | 82 | 0.0 | 0.0 | 0.01 | 0.15 | 0.01 | 91 | 1009.7 |
| 20260507055036 | 49 | 71 | 0.0 | 1.0 | 0.00 | 0.14 | 0.00 | 91 | 1009.8 |
| 20260507054530 | 49 | 71 | 0.0 | 1.0 | 0.00 | 0.14 | 0.00 | 90 | 1009.7 |
| 20260507054024 | 50 | 64 | 0.0 | 1.0 | 0.00 | 0.14 | 0.00 | 91 | 1009.8 |
| 20260507053517 | 50 | 219 | 0.0 | 0.0 | 0.00 | 0.14 | 0.00 | 91 | 1009.9 |
| 20260507053012 | 50 | 96 | 0.0 | 1.0 | 0.00 | 0.14 | 0.00 | 91 | 1009.9 |
| 20260507052506 | 50 | 229 | 0.0 | 1.0 | 0.00 | 0.14 | 0.00 | 91 | 1010.0 |
| 20260507052000 | 50 | 91 | 0.0 | 0.0 | 0.00 | 0.14 | 0.00 | 92 | 1010.1 |
| 20260507051457 | 50 | 97 | 0.0 | 0.0 | 0.00 | 0.14 | 0.00 | 92 | 1010.2 |
| 20260507050957 | 50 | 97 | 0.0 | 1.0 | 0.00 | 0.14 | 0.00 | 92 | 1010.1 |
| 20260507050457 | 50 | 97 | 0.0 | 1.0 | 0.00 | 0.14 | 0.00 | 92 | 1010.1 |
| 20260507045454 | 50 | 223 | 0.0 | 0.0 | 0.00 | 0.14 | 0.00 | 92 | 1010.1 |
| 20260507044953 | 50 | 223 | 0.0 | 0.0 | 0.00 | 0.14 | 0.00 | 92 | 1010.4 |
| 20260507043450 | 50 | 170 | 0.0 | 0.0 | 0.00 | 0.14 | 0.00 | 92 | 1010.6 |
| 20260507041447 | 51 | 142 | 0.0 | 0.0 | 0.00 | 0.14 | 0.00 | 93 | 1010.7 |
| 20260507040947 | 51 | 142 | 0.0 | 0.0 | 0.00 | 0.14 | 0.00 | 93 | 1010.4 |
| 20260507040447 | 51 | 142 | 0.0 | 0.0 | 0.00 | 0.14 | 0.00 | 93 | 1010.7 |
| 20260507035946 | 51 | 217 | 0.0 | 0.0 | 0.00 | 0.14 | 0.14 | 93 | 1010.4 |
| 20260507035444 | 51 | 139 | 0.0 | 0.0 | 0.00 | 0.14 | 0.14 | 93 | 1010.3 |
| 20260507034944 | 51 | 139 | 0.0 | 0.0 | 0.00 | 0.14 | 0.14 | 93 | 1010.0 |
| 20260507034441 | 51 | 139 | 0.0 | 0.0 | 0.00 | 0.14 | 0.14 | 93 | 1010.2 |
| 20260507033939 | 51 | 139 | 0.0 | 0.0 | 0.00 | 0.14 | 0.14 | 93 | 1010.2 |
| 20260507033436 | 51 | 155 | 0.0 | 0.0 | 0.00 | 0.14 | 0.14 | 94 | 1010.1 |
| 20260507032936 | 52 | 155 | 0.0 | 0.0 | 0.00 | 0.14 | 0.14 | 93 | 1010.0 |
| 20260507032436 | 52 | 62 | 0.0 | 0.0 | 0.00 | 0.14 | 0.14 | 93 | 1010.3 |
| 20260507031934 | 52 | 92 | 0.0 | 1.0 | 0.00 | 0.14 | 0.14 | 94 | 1010.2 |
| 20260507031432 | 52 | 67 | 0.0 | 1.0 | 0.00 | 0.14 | 0.14 | 94 | 1010.3 |
| 20260507030930 | 53 | 67 | 0.0 | 4.0 | 0.00 | 0.14 | 0.14 | 94 | 1010.3 |
| 20260507030432 | 53 | 61 | 0.0 | 4.0 | 0.00 | 0.14 | 0.14 | 94 | 1010.4 |
| 20260507025931 | 54 | 40 | 0.0 | 6.0 | 0.00 | 0.14 | 0.14 | 94 | 1010.4 |
| 20260507025429 | 54 | 127 | 0.0 | 6.0 | 0.00 | 0.14 | 0.14 | 94 | 1010.1 |
| 20260507024928 | 55 | 77 | 0.0 | 2.0 | 0.00 | 0.14 | 0.14 | 94 | 1010.0 |
| 20260507024428 | 56 | 66 | 0.0 | 2.0 | 0.00 | 0.14 | 0.14 | 94 | 1010.1 |
| 20260507023923 | 57 | 286 | 0.0 | 7.0 | 0.00 | 0.14 | 0.14 | 95 | 1010.2 |
| 20260507023417 | 58 | 329 | 0.0 | 7.0 | 0.00 | 0.14 | 0.14 | 96 | 1010.0 |
| 20260507022911 | 58 | 131 | 0.0 | 0.0 | 0.00 | 0.14 | 0.14 | 96 | 1010.1 |
| 20260507022404 | 58 | 108 | 0.0 | 0.0 | 0.01 | 0.14 | 0.14 | 96 | 1010.1 |
| 20260507021859 | 58 | 108 | 0.0 | 0.0 | 0.01 | 0.14 | 0.14 | 96 | 1010.0 |
| 20260507021353 | 58 | 108 | 0.0 | 0.0 | 0.01 | 0.14 | 0.14 | 96 | 1010.0 |
| 20260507020846 | 59 | 113 | 0.0 | 0.0 | 0.01 | 0.14 | 0.14 | 96 | 1009.7 |
| 20260507020340 | 59 | 111 | 0.0 | 0.0 | 0.01 | 0.14 | 0.14 | 96 | 1009.8 |
| 20260507015849 | 59 | 108 | 0.0 | 0.0 | 0.01 | 0.14 | 0.14 | 96 | 1009.8 |
| 20260507015328 | 59 | 74 | 0.0 | 0.0 | 0.01 | 0.14 | 0.14 | 96 | 1009.9 |
| 20260507014822 | 60 | 120 | 0.0 | 0.0 | 0.01 | 0.14 | 0.14 | 96 | 1009.9 |
| 20260507014321 | 60 | 115 | 0.0 | 0.0 | 0.01 | 0.14 | 0.14 | 97 | 1009.9 |
| 20260507013821 | 60 | 124 | 0.0 | 0.0 | 0.01 | 0.14 | 0.14 | 97 | 1009.8 |
| 20260507013321 | 60 | 207 | 0.0 | 0.0 | 0.01 | 0.14 | 0.14 | 97 | 1009.6 |
| 20260507012820 | 60 | 125 | 0.0 | 0.0 | 0.00 | 0.13 | 0.13 | 97 | 1009.6 |
| 20260507012321 | 60 | 201 | 0.0 | 1.0 | 0.00 | 0.13 | 0.13 | 97 | 1009.6 |
| 20260507011820 | 60 | 207 | 0.0 | 2.0 | 0.00 | 0.13 | 0.13 | 97 | 1009.6 |
| 20260507010821 | 60 | 195 | 0.0 | 0.0 | 0.00 | 0.13 | 0.13 | 97 | 1009.4 |
| 20260507010320 | 60 | 200 | 0.0 | 0.0 | 0.00 | 0.13 | 0.13 | 97 | 1009.5 |
| 20260507005823 | 60 | 151 | 0.0 | 1.0 | 0.00 | 0.13 | 0.13 | 97 | 1009.4 |
| 20260507005320 | 60 | 205 | 0.0 | 1.0 | 0.00 | 0.13 | 0.13 | 97 | 1009.4 |
| 20260507004821 | 60 | 137 | 0.0 | 2.0 | 0.00 | 0.13 | 0.13 | 97 | 1009.4 |
| 20260507004320 | 60 | 198 | 0.0 | 2.0 | 0.00 | 0.13 | 0.13 | 97 | 1009.3 |
| 20260507003821 | 60 | 198 | 0.0 | 0.0 | 0.00 | 0.13 | 0.13 | 96 | 1009.1 |
| 20260507003321 | 60 | 200 | 0.0 | 0.0 | 0.00 | 0.13 | 0.13 | 96 | 1009.1 |
| 20260507002818 | 60 | 188 | 0.0 | 0.0 | 0.00 | 0.13 | 0.13 | 97 | 1009.0 |
| 20260507002319 | 60 | 213 | 0.0 | 0.0 | 0.00 | 0.13 | 0.13 | 96 | 1009.0 |
| 20260507001319 | 60 | 173 | 0.0 | 0.0 | 0.00 | 0.13 | 0.13 | 96 | 1009.2 |
| 20260507000819 | 60 | 216 | 0.0 | 2.0 | 0.00 | 0.13 | 0.13 | 96 | 1009.1 |
| 20260507000315 | 60 | 190 | 0.0 | 2.0 | 0.00 | 0.13 | 0.13 | 96 | 1009.0 |
| 20260506235817 | 60 | 214 | 0.0 | 2.0 | 0.00 | 0.13 | 0.13 | 96 | 1009.0 |
| 20260506235314 | 60 | 152 | 0.0 | 2.0 | 0.00 | 0.13 | 0.13 | 96 | 1008.9 |
| 20260506234813 | 60 | 229 | 0.0 | 3.0 | 0.00 | 0.13 | 0.13 | 96 | 1008.7 |
| 20260506233813 | 60 | 146 | 0.0 | 5.0 | 0.00 | 0.13 | 0.13 | 96 | 1008.7 |
| 20260506233312 | 60 | 203 | 0.0 | 3.0 | 0.00 | 0.13 | 0.13 | 96 | 1008.9 |
| 20260506232811 | 60 | 190 | 0.0 | 3.0 | 0.00 | 0.13 | 0.13 | 96 | 1008.8 |
| 20260506232310 | 60 | 218 | 0.0 | 1.0 | 0.00 | 0.13 | 0.13 | 96 | 1008.9 |
| 20260506231807 | 60 | 171 | 0.0 | 1.0 | 0.00 | 0.13 | 0.13 | 96 | 1008.8 |
| 20260506231309 | 60 | 203 | 0.0 | 1.0 | 0.00 | 0.13 | 0.13 | 96 | 1008.8 |
| 20260506230807 | 60 | 194 | 0.0 | 1.0 | 0.00 | 0.13 | 0.13 | 96 | 1008.9 |
| 20260506230306 | 60 | 140 | 0.0 | 4.0 | 0.00 | 0.13 | 0.13 | 96 | 1008.8 |
| 20260506225806 | 60 | 154 | 0.0 | 4.0 | 0.00 | 0.13 | 0.13 | 96 | 1008.7 |
| 20260506225306 | 60 | 201 | 0.0 | 3.0 | 0.00 | 0.13 | 0.13 | 96 | 1008.6 |
| 20260506224807 | 60 | 210 | 0.0 | 3.0 | 0.00 | 0.13 | 0.13 | 96 | 1008.7 |
| 20260506224305 | 60 | 201 | 0.0 | 3.0 | 0.00 | 0.13 | 0.13 | 96 | 1008.6 |
| 20260506223307 | 60 | 152 | 0.0 | 3.0 | 0.00 | 0.13 | 0.13 | 96 | 1008.5 |
| 20260506222807 | 60 | 177 | 0.0 | 3.0 | 0.00 | 0.13 | 0.13 | 96 | 1008.4 |
| 20260506222305 | 60 | 195 | 0.0 | 1.0 | 0.00 | 0.13 | 0.13 | 96 | 1008.3 |
| 20260506221800 | 60 | 207 | 0.0 | 0.0 | 0.00 | 0.13 | 0.13 | 96 | 1008.3 |
| 20260506221300 | 59 | 212 | 0.0 | 1.0 | 0.00 | 0.13 | 0.13 | 96 | 1008.4 |
| 20260506220759 | 59 | 162 | 0.0 | 2.0 | 0.00 | 0.13 | 0.13 | 96 | 1008.4 |
| 20260506215800 | 59 | 198 | 0.0 | 4.0 | 0.00 | 0.13 | 0.13 | 96 | 1008.4 |
| 20260506214757 | 59 | 215 | 0.0 | 0.0 | 0.00 | 0.13 | 0.13 | 96 | 1008.2 |
| 20260506214259 | 59 | 205 | 0.0 | 0.0 | 0.00 | 0.13 | 0.13 | 96 | 1008.2 |
| 20260506212753 | 59 | 159 | 0.0 | 2.0 | 0.02 | 0.13 | 0.13 | 96 | 1008.2 |
| 20260506212246 | 59 | 194 | 0.0 | 2.0 | 0.02 | 0.13 | 0.13 | 96 | 1008.2 |
| 20260506211739 | 59 | 200 | 0.0 | 1.0 | 0.03 | 0.13 | 0.13 | 96 | 1008.2 |
| 20260506211234 | 59 | 136 | 0.0 | 1.0 | 0.04 | 0.13 | 0.13 | 96 | 1008.2 |
| 20260506210727 | 59 | 200 | 0.0 | 0.0 | 0.05 | 0.13 | 0.13 | 96 | 1008.2 |
| 20260506205716 | 59 | 211 | 0.0 | 1.0 | 0.06 | 0.13 | 0.13 | 95 | 1008.1 |
| 20260506205209 | 59 | 215 | 0.0 | 4.0 | 0.06 | 0.13 | 0.13 | 95 | 1008.1 |
| 20260506204703 | 59 | 212 | 0.0 | 4.0 | 0.06 | 0.13 | 0.13 | 95 | 1008.2 |
| 20260506204158 | 59 | 214 | 0.0 | 1.0 | 0.07 | 0.13 | 0.13 | 95 | 1008.3 |
| 20260506203146 | 60 | 146 | 0.0 | 0.0 | 0.07 | 0.12 | 0.12 | 95 | 1008.2 |
| 20260506202639 | 59 | 228 | 0.0 | 0.0 | 0.07 | 0.11 | 0.11 | 95 | 1008.4 |
| 20260506202134 | 59 | 219 | 0.0 | 0.0 | 0.07 | 0.11 | 0.11 | 95 | 1008.5 |
| 20260506201628 | 59 | 172 | 0.0 | 1.0 | 0.06 | 0.10 | 0.10 | 95 | 1008.5 |
| 20260506201121 | 59 | 206 | 0.0 | 1.0 | 0.06 | 0.09 | 0.09 | 95 | 1008.5 |
| 20260506200615 | 59 | 171 | 0.0 | 0.0 | 0.05 | 0.08 | 0.08 | 94 | 1008.5 |
| 20260506200109 | 59 | 162 | 0.0 | 0.0 | 0.05 | 0.08 | 0.08 | 94 | 1008.7 |
| 20260506195057 | 59 | 212 | 0.0 | 5.0 | 0.04 | 0.07 | 0.07 | 94 | 1008.8 |
| 20260506194551 | 60 | 228 | 0.0 | 0.0 | 0.03 | 0.06 | 0.07 | 94 | 1008.9 |
| 20260506193539 | 60 | 164 | 0.0 | 5.0 | 0.02 | 0.05 | 0.06 | 93 | 1008.8 |
| 20260506193034 | 59 | 200 | 0.0 | 3.0 | 0.02 | 0.05 | 0.05 | 93 | 1009.0 |
| 20260506192527 | 59 | 211 | 0.0 | 1.0 | 0.01 | 0.04 | 0.04 | 92 | 1009.0 |
| 20260506192022 | 59 | 213 | 0.0 | 0.0 | 0.01 | 0.04 | 0.04 | 92 | 1008.9 |
| 20260506191515 | 60 | 197 | 0.0 | 1.0 | 0.01 | 0.04 | 0.04 | 92 | 1009.0 |
| 20260506190503 | 60 | 229 | 0.0 | 1.0 | 0.00 | 0.03 | 0.03 | 92 | 1009.0 |
| 20260506185958 | 59 | 149 | 0.0 | 1.0 | 0.00 | 0.03 | 0.03 | 92 | 1009.0 |
| 20260506185457 | 59 | 240 | 0.0 | 4.0 | 0.00 | 0.03 | 0.03 | 92 | 1009.1 |
| 20260506184956 | 59 | 198 | 0.0 | 4.0 | 0.00 | 0.03 | 0.03 | 91 | 1009.1 |
| 20260506184456 | 59 | 215 | 0.0 | 2.0 | 0.01 | 0.03 | 0.03 | 92 | 1009.2 |
| 20260506183953 | 59 | 134 | 0.0 | 6.0 | 0.01 | 0.03 | 0.03 | 92 | 1009.1 |
| 20260506183452 | 59 | 165 | 0.0 | 6.0 | 0.01 | 0.03 | 0.03 | 91 | 1009.2 |
| 20260506182949 | 59 | 219 | 0.0 | 3.0 | 0.01 | 0.03 | 0.03 | 91 | 1009.4 |
| 20260506182447 | 60 | 214 | 0.0 | 2.0 | 0.01 | 0.03 | 0.03 | 92 | 1009.3 |
| 20260506181949 | 60 | 189 | 0.0 | 6.0 | 0.01 | 0.03 | 0.03 | 92 | 1009.4 |
| 20260506181448 | 60 | 167 | 0.0 | 6.0 | 0.01 | 0.03 | 0.03 | 92 | 1009.6 |
| 20260506180945 | 60 | 231 | 0.0 | 4.0 | 0.01 | 0.03 | 0.03 | 91 | 1009.5 |
| 20260506180444 | 60 | 151 | 0.0 | 3.0 | 0.02 | 0.03 | 0.03 | 91 | 1009.6 |
| 20260506175946 | 60 | 155 | 0.0 | 3.0 | 0.02 | 0.03 | 0.03 | 91 | 1009.7 |
| 20260506175445 | 60 | 221 | 0.0 | 3.0 | 0.02 | 0.03 | 0.03 | 91 | 1009.7 |
| 20260506174446 | 60 | 193 | 0.0 | 3.0 | 0.02 | 0.02 | 0.02 | 90 | 1009.7 |
| 20260506173946 | 60 | 142 | 0.0 | 0.0 | 0.02 | 0.02 | 0.02 | 91 | 1009.5 |
| 20260506172946 | 60 | 195 | 0.0 | 1.0 | 0.02 | 0.02 | 0.02 | 90 | 1009.4 |
| 20260506172444 | 61 | 257 | 0.0 | 1.0 | 0.02 | 0.02 | 0.02 | 89 | 1009.5 |
| 20260506171945 | 61 | 200 | 0.0 | 1.0 | 0.02 | 0.02 | 0.02 | 88 | 1009.4 |
| 20260506171444 | 62 | 188 | 0.0 | 0.0 | 0.02 | 0.02 | 0.02 | 88 | 1009.6 |
| 20260506170945 | 62 | 251 | 0.0 | 1.0 | 0.02 | 0.02 | 0.02 | 87 | 1009.6 |
| 20260506165945 | 62 | 212 | 0.0 | 0.0 | 0.01 | 0.01 | 0.01 | 86 | 1009.9 |
| 20260506164942 | 63 | 186 | 0.0 | 0.0 | 0.00 | 0.00 | 0.00 | 84 | 1010.1 |
| 20260506164443 | 63 | 160 | 0.0 | 0.0 | 0.00 | 0.00 | 0.00 | 83 | 1010.3 |